Time,TemperatureF,DewpointF,PressureIn,WindDirection,WindDirectionDegrees,WindSpeedMPH,WindSpeedGustMPH,Humidity,HourlyPrecipIn,Conditions,Clouds,dailyrainin,SoftwareType,DateUTC
2013-03-07 00:02:00,41.7,33.4,30.29,ENE,61,1.0,3.0,72,0.00,,,0.00,meteohub,2013-03-07 06:02:00,
2013-03-07 00:06:00,41.5,33.3,30.29,ENE,61,0.0,3.0,72,0.00,,,0.00,meteohub,2013-03-07 06:06:00,
2013-03-07 00:12:00,41.5,33.6,30.29,ENE,61,0.0,2.0,73,0.00,,,0.00,meteohub,2013-03-07 06:12:00,
2013-03-07 00:17:00,41.4,33.4,30.29,ENE,61,0.0,2.0,73,0.00,,,0.00,meteohub,2013-03-07 06:17:00,
2013-03-07 00:22:00,41.5,33.3,30.29,ENE,61,1.0,2.0,72,0.00,,,0.00,meteohub,2013-03-07 06:22:00,
2013-03-07 00:26:00,41.7,32.7,30.28,ENE,61,1.0,2.0,70,0.00,,,0.00,meteohub,2013-03-07 06:26:00,
2013-03-07 00:32:00,42.4,33.1,30.28,ENE,61,3.0,3.0,69,0.00,,,0.00,meteohub,2013-03-07 06:32:00,
2013-03-07 00:37:00,42.4,33.4,30.28,ENE,61,2.0,3.0,70,0.00,,,0.00,meteohub,2013-03-07 06:37:00,
2013-03-07 00:42:00,42.3,33.3,30.28,ENE,61,1.0,3.0,70,0.00,,,0.00,meteohub,2013-03-07 06:42:00,
2013-03-07 00:47:00,42.3,33.3,30.28,ENE,61,2.0,3.0,70,0.00,,,0.00,meteohub,2013-03-07 06:47:00,
2013-03-07 00:52:00,42.4,33.4,30.28,ENE,61,1.0,3.0,70,0.00,,,0.00,meteohub,2013-03-07 06:52:00,
2013-03-07 00:57:00,42.4,33.1,30.28,ENE,61,2.0,3.0,69,0.00,,,0.00,meteohub,2013-03-07 06:57:00,
2013-03-07 01:02:00,42.6,33.1,30.28,ENE,63,2.0,4.0,69,0.00,,,0.00,meteohub,2013-03-07 07:02:00,
2013-03-07 01:07:00,42.8,33.3,30.28,ENE,61,2.0,4.0,69,0.00,,,0.00,meteohub,2013-03-07 07:07:00,
2013-03-07 01:12:00,43.0,33.4,30.28,ENE,61,2.0,5.0,69,0.00,,,0.00,meteohub,2013-03-07 07:12:00,
2013-03-07 01:17:00,43.0,33.1,30.27,ENE,61,2.0,5.0,68,0.00,,,0.00,meteohub,2013-03-07 07:17:00,
2013-03-07 01:22:00,42.8,33.3,30.27,ENE,64,3.0,5.0,69,0.00,,,0.00,meteohub,2013-03-07 07:22:00,
2013-03-07 01:27:00,42.6,33.1,30.28,ENE,61,2.0,4.0,69,0.00,,,0.00,meteohub,2013-03-07 07:27:00,
2013-03-07 01:32:00,42.4,33.4,30.28,NE,47,1.0,4.0,70,0.00,,,0.00,meteohub,2013-03-07 07:32:00,
2013-03-07 01:37:00,42.3,33.8,30.29,NE,47,0.0,4.0,72,0.00,,,0.00,meteohub,2013-03-07 07:37:00,
2013-03-07 01:42:00,41.9,33.6,30.29,NE,47,0.0,3.0,72,0.00,,,0.00,meteohub,2013-03-07 07:42:00,
2013-03-07 01:47:00,41.7,33.4,30.29,NE,47,0.0,1.0,72,0.00,,,0.00,meteohub,2013-03-07 07:47:00,
2013-03-07 01:52:00,41.5,32.9,30.29,NE,47,0.0,0.0,71,0.00,,,0.00,meteohub,2013-03-07 07:52:00,
2013-03-07 01:57:00,41.4,33.4,30.29,NE,47,0.0,0.0,73,0.00,,,0.00,meteohub,2013-03-07 07:57:00,
2013-03-07 02:01:00,41.2,33.8,30.30,NE,47,1.0,0.0,75,0.00,,,0.00,meteohub,2013-03-07 08:01:00,
2013-03-07 02:06:00,40.8,33.4,30.30,NE,47,1.0,2.0,75,0.00,,,0.00,meteohub,2013-03-07 08:06:00,
2013-03-07 02:12:00,40.6,33.3,30.31,NE,47,0.0,2.0,75,0.00,,,0.00,meteohub,2013-03-07 08:12:00,
2013-03-07 02:17:00,40.6,33.3,30.30,NE,47,0.0,2.0,75,0.00,,,0.00,meteohub,2013-03-07 08:17:00,
2013-03-07 02:22:00,40.6,33.1,30.31,NE,47,0.0,2.0,74,0.00,,,0.00,meteohub,2013-03-07 08:22:00,
2013-03-07 02:27:00,40.6,32.7,30.31,NE,47,0.0,0.0,73,0.00,,,0.00,meteohub,2013-03-07 08:27:00,
2013-03-07 02:32:00,40.6,33.1,30.30,NE,47,0.0,1.0,74,0.00,,,0.00,meteohub,2013-03-07 08:32:00,
2013-03-07 02:37:00,40.5,33.1,30.30,NE,47,0.0,1.0,75,0.00,,,0.00,meteohub,2013-03-07 08:37:00,
2013-03-07 02:42:00,40.5,32.9,30.30,NE,47,0.0,0.0,74,0.00,,,0.00,meteohub,2013-03-07 08:42:00,
2013-03-07 02:47:00,40.3,33.3,30.30,NE,47,0.0,0.0,76,0.00,,,0.00,meteohub,2013-03-07 08:47:00,
2013-03-07 02:52:00,40.3,33.3,30.30,NE,47,0.0,0.0,76,0.00,,,0.00,meteohub,2013-03-07 08:52:00,
2013-03-07 02:57:00,39.9,32.9,30.30,NE,47,0.0,0.0,76,0.00,,,0.00,meteohub,2013-03-07 08:57:00,
2013-03-07 03:02:00,39.7,33.1,30.30,NE,47,0.0,0.0,77,0.00,,,0.00,meteohub,2013-03-07 09:02:00,
2013-03-07 03:07:00,39.6,32.9,30.29,NE,47,0.0,0.0,77,0.00,,,0.00,meteohub,2013-03-07 09:07:00,
2013-03-07 03:12:00,39.6,33.6,30.30,NE,47,0.0,0.0,79,0.00,,,0.00,meteohub,2013-03-07 09:12:00,
2013-03-07 03:17:00,39.2,33.3,30.30,NE,47,0.0,0.0,79,0.00,,,0.00,meteohub,2013-03-07 09:17:00,
2013-03-07 03:22:00,39.0,33.1,30.30,NE,47,0.0,0.0,79,0.00,,,0.00,meteohub,2013-03-07 09:22:00,
2013-03-07 03:27:00,38.8,33.3,30.30,NE,47,0.0,0.0,80,0.00,,,0.00,meteohub,2013-03-07 09:27:00,
2013-03-07 03:32:00,38.7,33.1,30.31,NE,47,0.0,0.0,80,0.00,,,0.00,meteohub,2013-03-07 09:32:00,
2013-03-07 03:37:00,38.5,33.1,30.31,NE,47,0.0,0.0,81,0.00,,,0.00,meteohub,2013-03-07 09:37:00,
2013-03-07 03:42:00,38.5,33.1,30.31,NE,47,0.0,1.0,81,0.00,,,0.00,meteohub,2013-03-07 09:42:00,
2013-03-07 03:47:00,38.5,33.1,30.31,NE,47,0.0,1.0,81,0.00,,,0.00,meteohub,2013-03-07 09:47:00,
2013-03-07 03:52:00,38.3,32.9,30.30,NE,47,0.0,2.0,81,0.00,,,0.00,meteohub,2013-03-07 09:52:00,
2013-03-07 03:57:00,38.1,33.1,30.31,NE,47,0.0,2.0,82,0.00,,,0.00,meteohub,2013-03-07 09:57:00,
2013-03-07 04:02:00,37.9,32.9,30.31,NE,47,0.0,2.0,82,0.00,,,0.00,meteohub,2013-03-07 10:02:00,
2013-03-07 04:07:00,37.8,33.1,30.32,NE,47,0.0,0.0,83,0.00,,,0.00,meteohub,2013-03-07 10:07:00,
2013-03-07 04:12:00,37.4,33.1,30.32,NE,47,0.0,0.0,84,0.00,,,0.00,meteohub,2013-03-07 10:12:00,
2013-03-07 04:17:00,37.2,32.9,30.31,NE,47,0.0,0.0,84,0.00,,,0.00,meteohub,2013-03-07 10:17:00,
2013-03-07 04:22:00,37.0,32.9,30.31,NE,47,0.0,0.0,85,0.00,,,0.00,meteohub,2013-03-07 10:22:00,
2013-03-07 04:27:00,36.9,32.5,30.31,NE,47,0.0,0.0,84,0.00,,,0.00,meteohub,2013-03-07 10:27:00,
2013-03-07 04:32:00,36.7,32.5,30.31,NE,47,0.0,1.0,85,0.00,,,0.00,meteohub,2013-03-07 10:32:00,
2013-03-07 04:37:00,36.5,32.7,30.31,NE,47,1.0,1.0,86,0.00,,,0.00,meteohub,2013-03-07 10:37:00,
2013-03-07 04:42:00,36.3,32.5,30.32,NE,47,0.0,2.0,86,0.00,,,0.00,meteohub,2013-03-07 10:42:00,
2013-03-07 04:47:00,36.3,32.5,30.32,NE,47,0.0,2.0,86,0.00,,,0.00,meteohub,2013-03-07 10:47:00,
2013-03-07 04:52:00,36.1,32.4,30.32,NE,47,0.0,2.0,86,0.00,,,0.00,meteohub,2013-03-07 10:52:00,
2013-03-07 04:57:00,36.0,32.2,30.32,NE,47,0.0,0.0,86,0.00,,,0.00,meteohub,2013-03-07 10:57:00,
2013-03-07 05:02:00,35.8,32.0,30.32,NE,47,0.0,0.0,86,0.00,,,0.00,meteohub,2013-03-07 11:02:00,
2013-03-07 05:07:00,35.8,32.0,30.32,NE,47,0.0,0.0,86,0.00,,,0.00,meteohub,2013-03-07 11:07:00,
2013-03-07 05:12:00,35.4,32.0,30.32,NE,47,0.0,0.0,87,0.00,,,0.00,meteohub,2013-03-07 11:12:00,
2013-03-07 05:18:00,35.4,32.0,30.31,NE,47,0.0,0.0,87,0.00,,,0.00,meteohub,2013-03-07 11:18:00,
2013-03-07 05:22:00,35.4,32.0,30.31,NE,47,2.0,2.0,87,0.00,,,0.00,meteohub,2013-03-07 11:22:00,
2013-03-07 05:28:00,35.4,32.0,30.31,NE,47,0.0,2.0,87,0.00,,,0.00,meteohub,2013-03-07 11:28:00,
2013-03-07 05:33:00,35.8,32.4,30.31,ENE,65,1.0,2.0,87,0.00,,,0.00,meteohub,2013-03-07 11:33:00,
2013-03-07 05:38:00,36.9,32.7,30.31,ENE,65,1.0,4.0,85,0.00,,,0.00,meteohub,2013-03-07 11:38:00,
2013-03-07 05:43:00,37.4,32.7,30.31,ENE,65,0.0,4.0,83,0.00,,,0.00,meteohub,2013-03-07 11:43:00,
2013-03-07 05:48:00,37.6,32.9,30.31,ENE,65,0.0,4.0,83,0.00,,,0.00,meteohub,2013-03-07 11:48:00,
2013-03-07 05:53:00,37.2,32.5,30.31,ENE,65,0.0,3.0,83,0.00,,,0.00,meteohub,2013-03-07 11:53:00,
2013-03-07 05:58:00,37.0,32.4,30.31,ENE,65,0.0,2.0,83,0.00,,,0.00,meteohub,2013-03-07 11:58:00,
2013-03-07 06:03:00,36.7,32.4,30.31,ENE,65,0.0,0.0,84,0.00,,,0.00,meteohub,2013-03-07 12:03:00,
2013-03-07 06:08:00,36.7,32.4,30.32,ENE,65,0.0,0.0,84,0.00,,,0.00,meteohub,2013-03-07 12:08:00,
2013-03-07 06:13:00,36.5,32.2,30.32,ENE,65,0.0,1.0,84,0.00,,,0.00,meteohub,2013-03-07 12:13:00,
2013-03-07 06:18:00,36.3,32.2,30.32,ENE,65,0.0,1.0,85,0.00,,,0.00,meteohub,2013-03-07 12:18:00,
2013-03-07 06:23:00,36.3,32.2,30.32,ENE,65,0.0,1.0,85,0.00,,,0.00,meteohub,2013-03-07 12:23:00,
2013-03-07 06:28:00,36.5,32.2,30.33,ENE,65,0.0,1.0,84,0.00,,,0.00,meteohub,2013-03-07 12:28:00,
2013-03-07 06:34:00,36.5,32.2,30.33,ENE,65,0.0,1.0,84,0.00,,,0.00,meteohub,2013-03-07 12:34:00,
2013-03-07 06:39:00,36.5,32.2,30.33,ENE,65,0.0,0.0,84,0.00,,,0.00,meteohub,2013-03-07 12:39:00,
2013-03-07 06:44:00,36.3,32.2,30.33,ENE,65,0.0,0.0,85,0.00,,,0.00,meteohub,2013-03-07 12:44:00,
2013-03-07 06:49:00,36.3,32.2,30.33,ENE,65,0.0,0.0,85,0.00,,,0.00,meteohub,2013-03-07 12:49:00,
2013-03-07 06:54:00,36.3,32.2,30.34,ENE,65,0.0,0.0,85,0.00,,,0.00,meteohub,2013-03-07 12:54:00,
2013-03-07 06:59:00,36.3,32.5,30.34,ENE,65,0.0,0.0,86,0.00,,,0.00,meteohub,2013-03-07 12:59:00,
2013-03-07 07:04:00,36.5,32.7,30.35,ENE,65,0.0,0.0,86,0.00,,,0.00,meteohub,2013-03-07 13:04:00,
2013-03-07 07:09:00,36.7,33.3,30.34,ENE,65,0.0,0.0,87,0.00,,,0.00,meteohub,2013-03-07 13:09:00,
2013-03-07 07:14:00,37.0,33.6,30.35,ENE,65,0.0,0.0,87,0.00,,,0.00,meteohub,2013-03-07 13:14:00,
2013-03-07 07:19:00,37.6,34.0,30.35,ENE,65,0.0,2.0,87,0.00,,,0.00,meteohub,2013-03-07 13:19:00,
2013-03-07 07:24:00,38.1,34.3,30.35,ENE,65,1.0,2.0,86,0.00,,,0.00,meteohub,2013-03-07 13:24:00,
2013-03-07 07:29:00,39.0,34.3,30.35,ENE,61,2.0,2.0,83,0.00,,,0.00,meteohub,2013-03-07 13:29:00,
2013-03-07 07:34:00,39.7,34.7,30.35,ENE,63,3.0,5.0,82,0.00,,,0.00,meteohub,2013-03-07 13:34:00,
2013-03-07 07:40:00,40.5,34.7,30.35,ENE,74,5.0,5.0,80,0.00,,,0.00,meteohub,2013-03-07 13:40:00,
2013-03-07 07:45:00,40.8,34.9,30.36,East,98,2.0,7.0,79,0.00,,,0.00,meteohub,2013-03-07 13:45:00,
2013-03-07 07:50:00,41.4,35.1,30.36,ENE,63,4.0,7.0,78,0.00,,,0.00,meteohub,2013-03-07 13:50:00,
2013-03-07 07:55:00,41.9,34.9,30.36,ENE,75,1.0,7.0,76,0.00,,,0.00,meteohub,2013-03-07 13:55:00,
2013-03-07 08:00:00,42.4,35.8,30.37,ENE,62,2.0,7.0,77,0.00,,,0.00,meteohub,2013-03-07 14:00:00,
2013-03-07 08:05:00,42.6,35.2,30.37,ENE,66,5.0,7.0,75,0.00,,,0.00,meteohub,2013-03-07 14:05:00,
2013-03-07 08:10:00,43.2,35.8,30.36,ENE,65,8.0,9.0,75,0.00,,,0.00,meteohub,2013-03-07 14:10:00,
2013-03-07 08:15:00,43.3,36.0,30.37,ENE,64,3.0,9.0,75,0.00,,,0.00,meteohub,2013-03-07 14:15:00,
2013-03-07 08:20:00,43.7,36.3,30.37,East,84,2.0,11.0,75,0.00,,,0.00,meteohub,2013-03-07 14:20:00,
2013-03-07 08:25:00,44.2,36.1,30.38,NE,53,6.0,11.0,73,0.00,,,0.00,meteohub,2013-03-07 14:25:00,
2013-03-07 08:30:00,44.8,37.0,30.38,East,101,2.0,11.0,74,0.00,,,0.00,meteohub,2013-03-07 14:30:00,
2013-03-07 08:35:00,45.1,36.0,30.38,ENE,66,9.0,10.0,70,0.00,,,0.00,meteohub,2013-03-07 14:35:00,
2013-03-07 08:40:00,45.5,36.3,30.38,ENE,65,8.0,11.0,70,0.00,,,0.00,meteohub,2013-03-07 14:40:00,
2013-03-07 08:45:00,45.9,36.7,30.38,ENE,69,5.0,11.0,70,0.00,,,0.00,meteohub,2013-03-07 14:45:00,
2013-03-07 08:50:00,46.4,36.5,30.38,NE,53,6.0,9.0,68,0.00,,,0.00,meteohub,2013-03-07 14:50:00,
2013-03-07 08:55:00,47.1,37.4,30.38,NE,37,5.0,9.0,69,0.00,,,0.00,meteohub,2013-03-07 14:55:00,
2013-03-07 09:00:00,47.7,37.2,30.38,ENE,74,4.0,11.0,67,0.00,,,0.00,meteohub,2013-03-07 15:00:00,
2013-03-07 09:05:00,47.7,36.9,30.38,NE,46,5.0,11.0,66,0.00,,,0.00,meteohub,2013-03-07 15:05:00,
2013-03-07 09:10:00,47.7,37.2,30.38,East,88,1.0,10.0,67,0.00,,,0.00,meteohub,2013-03-07 15:10:00,
2013-03-07 09:15:00,48.0,36.9,30.38,ENE,69,3.0,10.0,65,0.00,,,0.00,meteohub,2013-03-07 15:15:00,
2013-03-07 09:20:00,48.6,37.8,30.38,East,90,2.0,10.0,66,0.00,,,0.00,meteohub,2013-03-07 15:20:00,
2013-03-07 09:25:00,49.1,37.4,30.38,ESE,116,3.0,10.0,64,0.00,,,0.00,meteohub,2013-03-07 15:25:00,
2013-03-07 09:30:00,49.5,37.4,30.38,ENE,71,8.0,10.0,63,0.00,,,0.00,meteohub,2013-03-07 15:30:00,
2013-03-07 09:35:00,49.3,37.6,30.38,East,93,3.0,10.0,64,0.00,,,0.00,meteohub,2013-03-07 15:35:00,
2013-03-07 09:40:00,49.6,37.9,30.37,ENE,71,4.0,10.0,64,0.00,,,0.00,meteohub,2013-03-07 15:40:00,
2013-03-07 09:45:00,50.4,37.4,30.37,ENE,62,7.0,9.0,61,0.00,,,0.00,meteohub,2013-03-07 15:45:00,
2013-03-07 09:50:00,50.5,37.6,30.37,ENE,59,1.0,8.0,61,0.00,,,0.00,meteohub,2013-03-07 15:50:00,
2013-03-07 09:55:00,51.4,37.6,30.37,East,86,6.0,8.0,59,0.00,,,0.00,meteohub,2013-03-07 15:55:00,
2013-03-07 10:01:00,51.4,37.6,30.37,ENE,60,3.0,7.0,59,0.00,,,0.00,meteohub,2013-03-07 16:01:00,
2013-03-07 10:06:00,51.8,37.9,30.36,ENE,76,8.0,8.0,59,0.00,,,0.00,meteohub,2013-03-07 16:06:00,
2013-03-07 10:11:00,51.6,37.8,30.37,NE,44,4.0,9.0,59,0.00,,,0.00,meteohub,2013-03-07 16:11:00,
2013-03-07 10:16:00,52.0,37.6,30.36,ENE,69,2.0,9.0,58,0.00,,,0.00,meteohub,2013-03-07 16:16:00,
2013-03-07 10:21:00,52.5,37.8,30.36,ENE,67,2.0,9.0,57,0.00,,,0.00,meteohub,2013-03-07 16:21:00,
2013-03-07 10:26:00,53.1,37.8,30.36,ESE,115,1.0,8.0,56,0.00,,,0.00,meteohub,2013-03-07 16:26:00,
2013-03-07 10:31:00,53.6,37.8,30.36,SE,136,3.0,8.0,55,0.00,,,0.00,meteohub,2013-03-07 16:31:00,
2013-03-07 10:36:00,54.0,37.2,30.36,NE,50,3.0,8.0,53,0.00,,,0.00,meteohub,2013-03-07 16:36:00,
2013-03-07 10:41:00,54.1,37.4,30.36,NNE,28,4.0,8.0,53,0.00,,,0.00,meteohub,2013-03-07 16:41:00,
2013-03-07 10:46:00,54.5,37.8,30.35,NE,44,1.0,8.0,53,0.00,,,0.00,meteohub,2013-03-07 16:46:00,
2013-03-07 10:51:00,54.3,36.5,30.35,ESE,123,2.0,9.0,51,0.00,,,0.00,meteohub,2013-03-07 16:51:00,
2013-03-07 10:56:00,54.7,37.4,30.35,ENE,78,9.0,9.0,52,0.00,,,0.00,meteohub,2013-03-07 16:56:00,
2013-03-07 11:01:00,55.0,37.2,30.35,ENE,69,7.0,10.0,51,0.00,,,0.00,meteohub,2013-03-07 17:01:00,
2013-03-07 11:06:00,55.2,36.9,30.35,ENE,75,8.0,10.0,50,0.00,,,0.00,meteohub,2013-03-07 17:06:00,
2013-03-07 11:11:00,54.9,35.6,30.34,SE,135,0.0,10.0,48,0.00,,,0.00,meteohub,2013-03-07 17:11:00,
2013-03-07 11:16:00,55.4,35.4,30.34,ESE,119,5.0,9.0,47,0.00,,,0.00,meteohub,2013-03-07 17:16:00,
2013-03-07 11:21:00,55.8,37.4,30.34,ENE,59,1.0,9.0,50,0.00,,,0.00,meteohub,2013-03-07 17:21:00,
2013-03-07 11:26:00,55.8,35.2,30.34,East,87,3.0,10.0,46,0.00,,,0.00,meteohub,2013-03-07 17:26:00,
2013-03-07 11:31:00,55.8,35.2,30.34,ENE,66,0.0,10.0,46,0.00,,,0.00,meteohub,2013-03-07 17:31:00,
2013-03-07 11:36:00,56.1,35.1,30.34,ENE,60,7.0,10.0,45,0.00,,,0.00,meteohub,2013-03-07 17:36:00,
2013-03-07 11:41:00,56.5,35.4,30.34,ENE,68,7.0,10.0,45,0.00,,,0.00,meteohub,2013-03-07 17:41:00,
2013-03-07 11:46:00,56.8,35.8,30.34,ENE,71,0.0,10.0,45,0.00,,,0.00,meteohub,2013-03-07 17:46:00,
2013-03-07 11:51:00,57.0,36.5,30.34,ENE,58,4.0,9.0,46,0.00,,,0.00,meteohub,2013-03-07 17:51:00,
2013-03-07 11:56:00,57.6,35.8,30.34,ESE,114,2.0,9.0,44,0.00,,,0.00,meteohub,2013-03-07 17:56:00,
2013-03-07 12:01:00,57.7,35.4,30.33,SE,127,0.0,8.0,43,0.00,,,0.00,meteohub,2013-03-07 18:01:00,
2013-03-07 12:06:00,57.9,35.6,30.33,NE,44,2.0,8.0,43,0.00,,,0.00,meteohub,2013-03-07 18:06:00,
2013-03-07 12:11:00,57.7,36.5,30.33,East,92,3.0,8.0,45,0.00,,,0.00,meteohub,2013-03-07 18:11:00,
2013-03-07 12:16:00,57.9,36.7,30.33,SE,126,3.0,7.0,45,0.00,,,0.00,meteohub,2013-03-07 18:16:00,
2013-03-07 12:21:00,58.3,36.5,30.32,East,80,5.0,7.0,44,0.00,,,0.00,meteohub,2013-03-07 18:21:00,
2013-03-07 12:26:00,58.3,36.0,30.32,SE,134,0.0,7.0,43,0.00,,,0.00,meteohub,2013-03-07 18:26:00,
2013-03-07 12:31:00,58.6,37.4,30.32,NE,39,2.0,7.0,45,0.00,,,0.00,meteohub,2013-03-07 18:31:00,
2013-03-07 12:36:00,59.2,36.7,30.31,NNE,27,5.0,7.0,43,0.00,,,0.00,meteohub,2013-03-07 18:36:00,
2013-03-07 12:41:00,59.4,36.3,30.31,NE,38,3.0,7.0,42,0.00,,,0.00,meteohub,2013-03-07 18:41:00,
2013-03-07 12:46:00,59.5,37.0,30.31,NNW,345,3.0,7.0,43,0.00,,,0.00,meteohub,2013-03-07 18:46:00,
2013-03-07 12:51:00,59.7,36.0,30.31,NNE,20,0.0,7.0,41,0.00,,,0.00,meteohub,2013-03-07 18:51:00,
2013-03-07 12:57:00,60.3,35.2,30.30,SE,134,4.0,7.0,39,0.00,,,0.00,meteohub,2013-03-07 18:57:00,
2013-03-07 13:02:00,60.1,36.9,30.30,North,350,4.0,7.0,42,0.00,,,0.00,meteohub,2013-03-07 19:02:00,
2013-03-07 13:07:00,60.3,36.5,30.30,ENE,61,5.0,7.0,41,0.00,,,0.00,meteohub,2013-03-07 19:07:00,
2013-03-07 13:12:00,60.3,35.8,30.29,NW,318,3.0,7.0,40,0.00,,,0.00,meteohub,2013-03-07 19:12:00,
2013-03-07 13:17:00,60.3,36.5,30.29,SSE,149,3.0,7.0,41,0.00,,,0.00,meteohub,2013-03-07 19:17:00,
2013-03-07 13:22:00,61.0,35.8,30.29,West,278,1.0,7.0,39,0.00,,,0.00,meteohub,2013-03-07 19:22:00,
2013-03-07 13:27:00,61.3,36.1,30.29,NNE,32,2.0,4.0,39,0.00,,,0.00,meteohub,2013-03-07 19:27:00,
2013-03-07 13:32:00,61.2,36.7,30.28,ESE,109,2.0,8.0,40,0.00,,,0.00,meteohub,2013-03-07 19:32:00,
2013-03-07 13:37:00,60.4,35.4,30.29,North,351,3.0,8.0,39,0.00,,,0.00,meteohub,2013-03-07 19:37:00,
2013-03-07 13:42:00,60.1,36.3,30.28,West,276,0.0,8.0,41,0.00,,,0.00,meteohub,2013-03-07 19:42:00,
2013-03-07 13:47:00,60.3,37.8,30.27,ENE,73,2.0,6.0,43,0.00,,,0.00,meteohub,2013-03-07 19:47:00,
2013-03-07 13:52:00,60.6,37.4,30.27,ESE,117,1.0,7.0,42,0.00,,,0.00,meteohub,2013-03-07 19:52:00,
2013-03-07 13:57:00,61.2,36.7,30.27,ESE,123,2.0,7.0,40,0.00,,,0.00,meteohub,2013-03-07 19:57:00,
2013-03-07 14:02:00,61.7,36.5,30.27,South,178,0.0,7.0,39,0.00,,,0.00,meteohub,2013-03-07 20:02:00,
2013-03-07 14:07:00,62.1,36.1,30.27,West,279,3.0,5.0,38,0.00,,,0.00,meteohub,2013-03-07 20:07:00,
2013-03-07 14:12:00,62.2,37.6,30.27,NNW,329,2.0,5.0,40,0.00,,,0.00,meteohub,2013-03-07 20:12:00,
2013-03-07 14:17:00,62.6,36.0,30.27,ESE,111,2.0,5.0,37,0.00,,,0.00,meteohub,2013-03-07 20:17:00,
2013-03-07 14:22:00,62.6,37.2,30.27,NE,53,1.0,5.0,39,0.00,,,0.00,meteohub,2013-03-07 20:22:00,
2013-03-07 14:27:00,62.8,36.9,30.27,West,279,4.0,5.0,38,0.00,,,0.00,meteohub,2013-03-07 20:27:00,
2013-03-07 14:32:00,62.4,35.8,30.26,NNW,344,1.0,7.0,37,0.00,,,0.00,meteohub,2013-03-07 20:32:00,
2013-03-07 14:37:00,63.1,36.5,30.26,WNW,286,4.0,7.0,37,0.00,,,0.00,meteohub,2013-03-07 20:37:00,
2013-03-07 14:42:00,63.0,35.6,30.26,WSW,252,0.0,7.0,36,0.00,,,0.00,meteohub,2013-03-07 20:42:00,
2013-03-07 14:47:00,63.0,34.2,30.25,NE,55,1.0,5.0,34,0.00,,,0.00,meteohub,2013-03-07 20:47:00,
2013-03-07 14:52:00,62.8,35.4,30.26,ENE,71,4.0,5.0,36,0.00,,,0.00,meteohub,2013-03-07 20:52:00,
2013-03-07 14:57:00,62.8,34.7,30.25,ENE,73,3.0,5.0,35,0.00,,,0.00,meteohub,2013-03-07 20:57:00,
2013-03-07 15:02:00,63.1,35.1,30.26,NNE,33,2.0,7.0,35,0.00,,,0.00,meteohub,2013-03-07 21:02:00,
2013-03-07 15:07:00,63.7,35.6,30.26,WNW,292,2.0,7.0,35,0.00,,,0.00,meteohub,2013-03-07 21:07:00,
2013-03-07 15:12:00,63.7,34.7,30.25,NNW,343,2.0,5.0,34,0.00,,,0.00,meteohub,2013-03-07 21:12:00,
2013-03-07 15:16:00,63.3,36.0,30.25,NNW,343,1.0,5.0,36,0.00,,,0.00,meteohub,2013-03-07 21:16:00,
2013-03-07 15:22:00,63.1,35.1,30.25,NNW,344,3.0,4.0,35,0.00,,,0.00,meteohub,2013-03-07 21:22:00,
2013-03-07 15:27:00,63.7,35.6,30.25,NNW,343,0.0,4.0,35,0.00,,,0.00,meteohub,2013-03-07 21:27:00,
2013-03-07 15:32:00,64.2,36.0,30.24,NNW,344,2.0,4.0,35,0.00,,,0.00,meteohub,2013-03-07 21:32:00,
2013-03-07 15:37:00,64.4,35.4,30.24,East,80,2.0,4.0,34,0.00,,,0.00,meteohub,2013-03-07 21:37:00,
2013-03-07 15:42:00,64.8,35.8,30.25,NE,44,1.0,4.0,34,0.00,,,0.00,meteohub,2013-03-07 21:42:00,
2013-03-07 15:47:00,64.6,36.3,30.25,NNW,338,1.0,4.0,35,0.00,,,0.00,meteohub,2013-03-07 21:47:00,
2013-03-07 15:52:00,64.0,34.3,30.25,NNW,333,1.0,4.0,33,0.00,,,0.00,meteohub,2013-03-07 21:52:00,
2013-03-07 15:57:00,64.0,35.8,30.25,North,355,1.0,4.0,35,0.00,,,0.00,meteohub,2013-03-07 21:57:00,
2013-03-07 16:02:00,64.2,35.2,30.25,NNW,331,0.0,4.0,34,0.00,,,0.00,meteohub,2013-03-07 22:02:00,
2013-03-07 16:07:00,64.2,35.2,30.24,NE,38,3.0,3.0,34,0.00,,,0.00,meteohub,2013-03-07 22:07:00,
2013-03-07 16:12:00,64.0,34.3,30.24,NE,38,0.0,3.0,33,0.00,,,0.00,meteohub,2013-03-07 22:12:00,
2013-03-07 16:17:00,63.9,34.9,30.24,NE,38,1.0,3.0,34,0.00,,,0.00,meteohub,2013-03-07 22:17:00,
2013-03-07 16:22:00,63.9,34.9,30.24,ENE,65,1.0,3.0,34,0.00,,,0.00,meteohub,2013-03-07 22:22:00,
2013-03-07 16:27:00,64.2,34.5,30.25,North,11,2.0,3.0,33,0.00,,,0.00,meteohub,2013-03-07 22:27:00,
2013-03-07 16:32:00,64.8,35.1,30.24,NE,52,1.0,3.0,33,0.00,,,0.00,meteohub,2013-03-07 22:32:00,
2013-03-07 16:37:00,64.6,34.0,30.24,ENE,78,0.0,4.0,32,0.00,,,0.00,meteohub,2013-03-07 22:37:00,
2013-03-07 16:42:00,64.2,35.2,30.24,ENE,78,1.0,4.0,34,0.00,,,0.00,meteohub,2013-03-07 22:42:00,
2013-03-07 16:47:00,64.2,34.5,30.24,ENE,78,1.0,4.0,33,0.00,,,0.00,meteohub,2013-03-07 22:47:00,
2013-03-07 16:52:00,64.2,34.5,30.23,ENE,78,1.0,3.0,33,0.00,,,0.00,meteohub,2013-03-07 22:52:00,
2013-03-07 16:57:00,64.2,33.8,30.24,ENE,77,0.0,3.0,32,0.00,,,0.00,meteohub,2013-03-07 22:57:00,
2013-03-07 17:02:00,64.4,34.0,30.24,ENE,77,0.0,3.0,32,0.00,,,0.00,meteohub,2013-03-07 23:02:00,
2013-03-07 17:07:00,64.6,34.9,30.24,NNE,19,1.0,3.0,33,0.00,,,0.00,meteohub,2013-03-07 23:07:00,
2013-03-07 17:12:00,64.4,34.7,30.24,NNW,338,1.0,3.0,33,0.00,,,0.00,meteohub,2013-03-07 23:12:00,
2013-03-07 17:17:00,64.2,35.2,30.24,NNW,338,0.0,3.0,34,0.00,,,0.00,meteohub,2013-03-07 23:17:00,
2013-03-07 17:22:00,64.2,36.7,30.24,NNW,338,2.0,3.0,36,0.00,,,0.00,meteohub,2013-03-07 23:22:00,
2013-03-07 17:27:00,63.9,36.3,30.24,ENE,58,1.0,2.0,36,0.00,,,0.00,meteohub,2013-03-07 23:27:00,
2013-03-07 17:32:00,63.7,37.6,30.24,ENE,58,0.0,3.0,38,0.00,,,0.00,meteohub,2013-03-07 23:32:00,
2013-03-07 17:37:00,63.3,35.2,30.24,ENE,58,0.0,3.0,35,0.00,,,0.00,meteohub,2013-03-07 23:37:00,
2013-03-07 17:42:00,63.1,35.8,30.24,ENE,58,0.0,3.0,36,0.00,,,0.00,meteohub,2013-03-07 23:42:00,
2013-03-07 17:47:00,63.0,35.6,30.24,ENE,58,0.0,2.0,36,0.00,,,0.00,meteohub,2013-03-07 23:47:00,
2013-03-07 17:52:00,62.8,35.4,30.24,ENE,58,0.0,1.0,36,0.00,,,0.00,meteohub,2013-03-07 23:52:00,
2013-03-07 17:57:00,62.2,36.3,30.24,ENE,58,0.0,1.0,38,0.00,,,0.00,meteohub,2013-03-07 23:57:00,
2013-03-07 18:02:00,61.9,36.0,30.25,ENE,58,0.0,0.0,38,0.00,,,0.00,meteohub,2013-03-08 00:02:00,
2013-03-07 18:07:00,61.3,36.9,30.24,ENE,58,0.0,0.0,40,0.00,,,0.00,meteohub,2013-03-08 00:07:00,
2013-03-07 18:12:00,61.0,37.8,30.24,ENE,58,0.0,0.0,42,0.00,,,0.00,meteohub,2013-03-08 00:12:00,
2013-03-07 18:17:00,60.4,40.1,30.25,ENE,58,0.0,0.0,47,0.00,,,0.00,meteohub,2013-03-08 00:17:00,
2013-03-07 18:22:00,59.9,37.9,30.25,ENE,58,0.0,0.0,44,0.00,,,0.00,meteohub,2013-03-08 00:22:00,
2013-03-07 18:27:00,59.2,37.9,30.25,ENE,58,0.0,0.0,45,0.00,,,0.00,meteohub,2013-03-08 00:27:00,
2013-03-07 18:32:00,58.5,37.2,30.25,ENE,58,0.0,1.0,45,0.00,,,0.00,meteohub,2013-03-08 00:32:00,
2013-03-07 18:36:00,57.7,37.6,30.25,ENE,58,0.0,1.0,47,0.00,,,0.00,meteohub,2013-03-08 00:36:00,
2013-03-07 18:41:00,57.4,38.3,30.25,ENE,58,0.0,1.0,49,0.00,,,0.00,meteohub,2013-03-08 00:41:00,
2013-03-07 18:47:00,56.8,37.4,30.25,ENE,58,0.0,0.0,48,0.00,,,0.00,meteohub,2013-03-08 00:47:00,
2013-03-07 18:52:00,56.3,36.3,30.25,ENE,59,0.0,0.0,47,0.00,,,0.00,meteohub,2013-03-08 00:52:00,
2013-03-07 18:57:00,55.9,37.0,30.25,ENE,59,0.0,0.0,49,0.00,,,0.00,meteohub,2013-03-08 00:57:00,
2013-03-07 19:02:00,55.6,37.8,30.25,ENE,58,0.0,0.0,51,0.00,,,0.00,meteohub,2013-03-08 01:02:00,
2013-03-07 19:07:00,55.2,37.9,30.25,ENE,58,0.0,0.0,52,0.00,,,0.00,meteohub,2013-03-08 01:07:00,
2013-03-07 19:12:00,54.9,36.5,30.25,ENE,58,0.0,0.0,50,0.00,,,0.00,meteohub,2013-03-08 01:12:00,
2013-03-07 19:17:00,54.5,37.2,30.25,ENE,58,0.0,0.0,52,0.00,,,0.00,meteohub,2013-03-08 01:17:00,
2013-03-07 19:22:00,54.1,37.4,30.25,ENE,58,0.0,0.0,53,0.00,,,0.00,meteohub,2013-03-08 01:22:00,
2013-03-07 19:27:00,53.8,38.5,30.25,ENE,58,0.0,0.0,56,0.00,,,0.00,meteohub,2013-03-08 01:27:00,
2013-03-07 19:32:00,53.4,37.6,30.25,ENE,58,0.0,0.0,55,0.00,,,0.00,meteohub,2013-03-08 01:32:00,
2013-03-07 19:37:00,53.2,37.9,30.25,ENE,59,0.0,0.0,56,0.00,,,0.00,meteohub,2013-03-08 01:37:00,
2013-03-07 19:42:00,52.9,38.5,30.25,ENE,58,0.0,0.0,58,0.00,,,0.00,meteohub,2013-03-08 01:42:00,
2013-03-07 19:47:00,52.3,38.5,30.25,ENE,58,0.0,0.0,59,0.00,,,0.00,meteohub,2013-03-08 01:47:00,
2013-03-07 19:52:00,52.0,38.5,30.25,ENE,58,0.0,0.0,60,0.00,,,0.00,meteohub,2013-03-08 01:52:00,
2013-03-07 19:57:00,51.6,38.1,30.25,ENE,58,0.0,0.0,60,0.00,,,0.00,meteohub,2013-03-08 01:57:00,
2013-03-07 20:02:00,51.3,38.3,30.25,ENE,58,0.0,0.0,61,0.00,,,0.00,meteohub,2013-03-08 02:02:00,
2013-03-07 20:07:00,50.9,37.9,30.25,ENE,58,0.0,0.0,61,0.00,,,0.00,meteohub,2013-03-08 02:07:00,
2013-03-07 20:12:00,50.7,37.8,30.25,ENE,58,0.0,0.0,61,0.00,,,0.00,meteohub,2013-03-08 02:12:00,
2013-03-07 20:17:00,50.5,37.2,30.25,ENE,58,0.0,0.0,60,0.00,,,0.00,meteohub,2013-03-08 02:17:00,
2013-03-07 20:22:00,50.5,36.7,30.25,ENE,58,0.0,0.0,59,0.00,,,0.00,meteohub,2013-03-08 02:22:00,
2013-03-07 20:27:00,50.4,36.5,30.25,ENE,58,0.0,0.0,59,0.00,,,0.00,meteohub,2013-03-08 02:27:00,
2013-03-07 20:32:00,50.4,37.8,30.25,ENE,58,0.0,0.0,62,0.00,,,0.00,meteohub,2013-03-08 02:32:00,
2013-03-07 20:37:00,50.2,37.6,30.25,ENE,58,0.0,0.0,62,0.00,,,0.00,meteohub,2013-03-08 02:37:00,
2013-03-07 20:42:00,49.8,38.1,30.25,ENE,58,0.0,0.0,64,0.00,,,0.00,meteohub,2013-03-08 02:42:00,
2013-03-07 20:47:00,49.6,37.6,30.25,ENE,58,0.0,0.0,63,0.00,,,0.00,meteohub,2013-03-08 02:47:00,
2013-03-07 20:52:00,49.6,37.6,30.25,ENE,58,0.0,0.0,63,0.00,,,0.00,meteohub,2013-03-08 02:52:00,
2013-03-07 20:58:00,49.5,37.4,30.25,ENE,59,0.0,0.0,63,0.00,,,0.00,meteohub,2013-03-08 02:58:00,
2013-03-07 21:03:00,49.5,37.0,30.25,ENE,58,0.0,1.0,62,0.00,,,0.00,meteohub,2013-03-08 03:03:00,
2013-03-07 21:08:00,49.3,37.2,30.25,ENE,58,0.0,1.0,63,0.00,,,0.00,meteohub,2013-03-08 03:08:00,
2013-03-07 21:13:00,49.3,37.6,30.26,ENE,59,0.0,1.0,64,0.00,,,0.00,meteohub,2013-03-08 03:13:00,
2013-03-07 21:18:00,48.9,37.2,30.26,ENE,58,0.0,0.0,64,0.00,,,0.00,meteohub,2013-03-08 03:18:00,
2013-03-07 21:23:00,48.7,38.3,30.26,ENE,58,0.0,0.0,67,0.00,,,0.00,meteohub,2013-03-08 03:23:00,
2013-03-07 21:28:00,48.4,37.9,30.26,ENE,58,0.0,0.0,67,0.00,,,0.00,meteohub,2013-03-08 03:28:00,
2013-03-07 21:33:00,48.0,38.7,30.27,ENE,58,0.0,0.0,70,0.00,,,0.00,meteohub,2013-03-08 03:33:00,
2013-03-07 21:38:00,47.8,39.2,30.27,ENE,59,0.0,0.0,72,0.00,,,0.00,meteohub,2013-03-08 03:38:00,
2013-03-07 21:43:00,47.5,38.8,30.27,ENE,59,0.0,0.0,72,0.00,,,0.00,meteohub,2013-03-08 03:43:00,
2013-03-07 21:48:00,47.1,38.8,30.27,ENE,58,0.0,0.0,73,0.00,,,0.00,meteohub,2013-03-08 03:48:00,
2013-03-07 21:53:00,46.9,39.0,30.27,ENE,58,0.0,0.0,74,0.00,,,0.00,meteohub,2013-03-08 03:53:00,
2013-03-07 21:58:00,46.8,38.8,30.27,ENE,59,0.0,1.0,74,0.00,,,0.00,meteohub,2013-03-08 03:58:00,
2013-03-07 22:03:00,46.4,38.8,30.27,ENE,58,0.0,1.0,75,0.00,,,0.00,meteohub,2013-03-08 04:03:00,
2013-03-07 22:08:00,46.2,39.0,30.27,ENE,58,0.0,0.0,76,0.00,,,0.00,meteohub,2013-03-08 04:08:00,
2013-03-07 22:13:00,46.0,39.2,30.26,ENE,58,0.0,0.0,77,0.00,,,0.00,meteohub,2013-03-08 04:13:00,
2013-03-07 22:18:00,46.0,40.3,30.26,South,188,0.0,0.0,80,0.00,,,0.00,meteohub,2013-03-08 04:18:00,
2013-03-07 22:23:00,45.9,40.1,30.27,South,188,0.0,3.0,80,0.00,,,0.00,meteohub,2013-03-08 04:23:00,
2013-03-07 22:28:00,45.9,40.1,30.27,South,188,0.0,3.0,80,0.00,,,0.00,meteohub,2013-03-08 04:28:00,
2013-03-07 22:33:00,46.0,40.3,30.27,South,188,0.0,2.0,80,0.00,,,0.00,meteohub,2013-03-08 04:33:00,
2013-03-07 22:38:00,46.0,40.5,30.27,South,188,0.0,0.0,81,0.00,,,0.00,meteohub,2013-03-08 04:38:00,
2013-03-07 22:43:00,45.9,40.1,30.27,South,188,0.0,1.0,80,0.00,,,0.00,meteohub,2013-03-08 04:43:00,
2013-03-07 22:48:00,45.9,40.1,30.27,South,188,0.0,2.0,80,0.00,,,0.00,meteohub,2013-03-08 04:48:00,
2013-03-07 22:53:00,45.9,40.1,30.27,South,188,0.0,2.0,80,0.00,,,0.00,meteohub,2013-03-08 04:53:00,
2013-03-07 22:58:00,45.7,39.9,30.27,South,188,0.0,2.0,80,0.00,,,0.00,meteohub,2013-03-08 04:58:00,
2013-03-07 23:00:00,45.7,39.9,30.27,South,188,0.0,2.0,80,0.00,,,0.00,meteohub,2013-03-08 05:00:00,
2013-03-07 23:01:00,45.7,39.9,30.27,South,188,0.0,2.0,80,0.00,,,0.00,meteohub,2013-03-08 05:01:00,
2013-03-07 23:06:00,45.9,39.7,30.27,South,188,0.0,2.0,79,0.00,,,0.00,meteohub,2013-03-08 05:06:00,
2013-03-07 23:11:00,46.0,39.9,30.26,South,188,0.0,1.0,79,0.00,,,0.00,meteohub,2013-03-08 05:11:00,
2013-03-07 23:16:00,46.0,39.9,30.26,South,188,0.0,1.0,79,0.00,,,0.00,meteohub,2013-03-08 05:16:00,
2013-03-07 23:21:00,46.0,39.9,30.26,South,188,0.0,0.0,79,0.00,,,0.00,meteohub,2013-03-08 05:21:00,
2013-03-07 23:27:00,46.2,40.1,30.26,South,188,0.0,0.0,79,0.00,,,0.00,meteohub,2013-03-08 05:27:00,
2013-03-07 23:32:00,46.2,39.7,30.26,South,188,0.0,0.0,78,0.00,,,0.00,meteohub,2013-03-08 05:32:00,
2013-03-07 23:37:00,46.2,40.5,30.26,South,188,0.0,0.0,80,0.00,,,0.00,meteohub,2013-03-08 05:37:00,
2013-03-07 23:42:00,46.0,40.3,30.26,South,188,0.0,0.0,80,0.00,,,0.00,meteohub,2013-03-08 05:42:00,
2013-03-07 23:47:00,45.9,40.1,30.27,South,188,0.0,0.0,80,0.00,,,0.00,meteohub,2013-03-08 05:47:00,
2013-03-07 23:52:00,45.9,40.3,30.27,South,188,0.0,0.0,81,0.00,,,0.00,meteohub,2013-03-08 05:52:00,
2013-03-07 23:57:00,45.9,40.3,30.27,South,188,0.0,0.0,81,0.00,,,0.00,meteohub,2013-03-08 05:57:00,